HELIOS 1A

导读

HELIOS 1A(太阳神-1A)是法国联合研制的欧洲第一代光学侦察卫星,1995年7月7日由阿里安-4火箭发射升空,隶属于法国太阳神卫星系列。 卫星运行于680千米高的太阳同步近圆轨道,发射质量2.5吨,设计寿命5年,地面分辨率达1米,可偏离星下点400千米侧摆成像,主要为合作方提供军事情报支撑,是法国早期空间侦察能力的核心装备。

基本信息
目录编号:
23605
目录名称:
HELIOS 1A
国际标识:
1995-033A
轨道中心:
EARTH
卫星名称:
HELIOS 1A
卫星全名:
HELIOS 1A
卫星状态:
在轨 (已飞行11330 天)
发射日期:
1995-07-07 UTC
国别 :
法国 (FR)
星等 :
--
轨道信息
数据来源 国际轨道数据 AOE轨道数据
星历时间 2026-07-14T12:20:52+0800
7小时前
查看轨道信息
2026-07-13T00:00:00+0800
1天前
查看轨道信息
半长轴 6926.918km 6926.941km
偏心率 0.0010857 0.001121
轨道倾角 98.193° 98.194°
近地点辐角 305.732° 311.019°
升交点赤经 87.159° 85.551°
平近点角 54.289° 123.752°
近地点 541.26km 541.038km
远地点 556.302km 556.57km
周期 95.625分钟 95.625分钟
每日圈数 15.058881 15.058808
详细信息
使用方式:
暂无
2D轨道图
3D轨道图
轨道高度分析图
轨道倾角分析图
轨道综合分析图
查看轨道综合分析图